Location: Assche-ter-Heiden
(50.9174°N, 4.1574°E)
Time: 17:12:28
(UTC+00:00)

Lacrosse 5 rocket - Pass Details

Date: 20 January 2020
Orbit: 465 x 632 km, 57.0° (Epoch: 19 February)

Event Time Altitude Azimuth Distance (km) Brightness Sun altitude
Exits shadow 06:35:57 12° 298° (WNW) 1,871 3.4 -9.3°
Maximum altitude 06:39:53 38° 5° (N) 940 2.4 -8.7°
Drops below altitude 10° 06:44:02 10° 74° (ENE) 1,939 5.0 -8.1°
Sets 06:46:23 0° 83° (E) 2,813 6.1 -7.7°
